Phoenix, AZ

1:35 PM MST on August 17, 2017 (GMT -0700)
Phoenix Sky Harbor International

Weather History for KPHX - September, 2013

Change the Weather History Date:

Thursday, September 26, 2013

  Actual Average Record
Temperature  
Mean Temperature 85 °F 85 °F  
Max Temperature 97 °F 96 °F 108 °F (1989)
Min Temperature 72 °F 73 °F 50 °F (1900)
Degree Days  
Heating Degree Days 0 0  
Month to date heating degree days 0 0  
Since 1 July heating degree days 0 0  
Cooling Degree Days 20 20  
Month to date cooling degree days 660 627  
Year to date cooling degree days 4548 4096  
Growing Degree Days 34 (Base 50)    
Moisture  
Dew Point 36 °F    
Average Humidity 18    
Maximum Humidity 25    
Minimum Humidity 11    
Precipitation  
Precipitation 0.00 in 0.02 in 2.62 in (1926)
Month to date precipitation 0.86 0.56  
Year to date precipitation 5.60 5.84  
Snow  
Snow 0.00 in - - ()
Month to date snowfall 0.0  
Year to date snowfall 0.0  
Since 1 July snowfall 0.0  
Snow Depth 0.00 in    
Sea Level Pressure  
Sea Level Pressure 29.60 in    
Wind  
Wind Speed 13 mph (SSW)    
Max Wind Speed 28 mph    
Max Gust Speed 32 mph    
Visibility 10 miles    
Events      
T = Trace of Precipitation, MM = Missing Value Source: NWS Daily Summary

Daily Weather History Graph

Daily Weather History Graph

Search for Another Location

Airport or City:

Trip Planner

Search our weather history database for the weather conditions in past years. The results will help you decide how hot, cold, wet, or windy it might be!

Date:

Astronomy

Sep. 26, 2013 Rise Set
Actual Time 6:19 AM MST 6:18 PM MST
Civil Twilight 5:54 AM MST 6:43 PM MST
Nautical Twilight 5:25 AM MST 7:12 PM MST
Astronomical Twilight 4:56 AM MST 7:41 PM MST
Moon 11:34 PM MST (9/26) 12:59 PM MST (9/26)
Length of Visible Light 12h 49m
Length of Day
11h 59m
Waning Gibbous, 53% of the Moon is Illuminated
Sep 26
Waning Gibbous
Sep 26
Last Quarter
Oct 4
New
Oct 11
First Quarter
Oct 18
Full

Hourly Weather History & Observations

Time (MST) Temp. Dew Point Humidity Pressure Visibility Wind Dir Wind Speed Gust Speed Precip Events Conditions
12:51 AM 81.0 °F 36.0 °F 20% 29.59 in 10.0 mi SSE 10.4 mph - N/A   Clear
1:51 AM 78.1 °F 37.0 °F 23% 29.60 in 10.0 mi SE 12.7 mph - N/A   Clear
2:51 AM 77.0 °F 34.0 °F 21% 29.59 in 10.0 mi SSE 8.1 mph - N/A   Clear
3:51 AM 75.9 °F 35.1 °F 23% 29.59 in 10.0 mi ESE 8.1 mph - N/A   Clear
4:51 AM 73.9 °F 35.1 °F 24% 29.60 in 10.0 mi East 9.2 mph - N/A   Clear
5:51 AM 73.0 °F 34.0 °F 24% 29.60 in 10.0 mi East 6.9 mph - N/A   Clear
6:51 AM 73.0 °F 30.0 °F 20% 29.61 in 10.0 mi East 9.2 mph - N/A   Partly Cloudy
7:51 AM 75.9 °F 30.0 °F 19% 29.62 in 10.0 mi ESE 6.9 mph - N/A   Partly Cloudy
8:51 AM 81.0 °F 32.0 °F 17% 29.64 in 10.0 mi SSE 12.7 mph - N/A   Partly Cloudy
9:51 AM 84.0 °F 39.9 °F 21% 29.64 in 10.0 mi SSE 10.4 mph - N/A   Clear
10:51 AM 88.0 °F 43.0 °F 21% 29.63 in 10.0 mi SSW 11.5 mph - N/A   Clear
11:51 AM 90.0 °F 43.0 °F 19% 29.61 in 10.0 mi SSE 9.2 mph - N/A   Partly Cloudy
12:51 PM 93.9 °F 44.1 °F 18% 29.58 in 10.0 mi South 9.2 mph 18.4 mph N/A   Partly Cloudy
1:51 PM 97.0 °F 45.0 °F 17% 29.55 in 10.0 mi SSW 18.4 mph 26.5 mph N/A   Partly Cloudy
2:51 PM 96.1 °F 46.0 °F 18% 29.54 in 10.0 mi SW 16.1 mph 23.0 mph N/A   Partly Cloudy
3:51 PM 93.9 °F 46.9 °F 20% 29.53 in 10.0 mi SW 13.8 mph 20.7 mph N/A   Scattered Clouds
4:51 PM 93.0 °F 46.9 °F 20% 29.54 in 10.0 mi West 17.3 mph - N/A   Scattered Clouds
5:51 PM 90.0 °F 41.0 °F 18% 29.55 in 10.0 mi West 27.6 mph - N/A   Scattered Clouds
6:51 PM 87.1 °F 27.0 °F 11% 29.56 in 9.0 mi West 25.3 mph - N/A   Scattered Clouds
7:51 PM 84.9 °F 26.1 °F 12% 29.58 in 10.0 mi West 15.0 mph - N/A   Scattered Clouds
8:51 PM 82.0 °F 28.9 °F 14% 29.61 in 10.0 mi WNW 17.3 mph - N/A   Scattered Clouds
9:51 PM 80.1 °F 28.9 °F 15% 29.64 in 10.0 mi NNW 12.7 mph - N/A   Scattered Clouds
10:51 PM 79.0 °F 27.0 °F 15% 29.67 in 10.0 mi WNW 12.7 mph - N/A   Mostly Cloudy
11:51 PM 77.0 °F 26.1 °F 15% 29.68 in 10.0 mi West 11.5 mph - N/A   Mostly Cloudy